GEFSMA_prec_meanprecacc_060.txt.gz
Total_Precipitation_Accumulation
0.25 0.28 0.26 0.25 0.24 0.33 0.44 0.54 0.60 0.81 0.89 0.70 0.57 0.55 0.55 0.62 0.61 0.70 0.65 0.57 0.56 0.65 0.86 0.97 0.87 0.80 0.71 0.63 0.57 0.50 0.45 0.38 0.35 0.33 0.40 0.46 0.46 0.45 0.42 0.39 0.35 0.30 0.26
0.37 0.39 0.36 0.39 0.37 0.42 0.49 0.62 0.76 1.00 0.98 0.93 0.75 0.64 0.61 0.59 0.56 0.62 0.64 0.68 0.68 0.66 0.67 0.76 0.81 0.76 0.69 0.63 0.56 0.48 0.40 0.37 0.33 0.25 0.24 0.30 0.35 0.37 0.37 0.38 0.35 0.30 0.26
0.55 0.54 0.46 0.47 0.61 0.73 0.78 0.80 0.96 1.15 0.97 1.01 0.84 0.78 0.68 0.60 0.51 0.51 0.59 0.61 0.58 0.59 0.63 0.68 0.68 0.65 0.65 0.65 0.62 0.55 0.41 0.34 0.30 0.26 0.22 0.22 0.25 0.26 0.26 0.29 0.31 0.28 0.25
0.70 0.76 0.64 0.64 1.00 1.08 1.08 1.19 1.33 1.32 1.20 1.17 1.03 0.86 0.69 0.62 0.51 0.46 0.43 0.47 0.50 0.48 0.56 0.65 0.62 0.57 0.62 0.71 0.77 0.77 0.60 0.45 0.35 0.31 0.27 0.26 0.29 0.28 0.22 0.21 0.22 0.21 0.18
0.85 0.98 0.90 1.04 1.33 1.33 1.29 1.30 1.53 1.47 1.30 1.28 1.20 0.95 0.67 0.55 0.42 0.37 0.32 0.29 0.33 0.39 0.40 0.44 0.46 0.49 0.62 0.83 0.91 0.87 0.76 0.60 0.47 0.40 0.38 0.36 0.40 0.34 0.22 0.18 0.20 0.20 0.17
1.05 1.27 1.16 1.22 1.40 1.46 1.41 1.40 1.35 1.38 1.24 1.25 1.21 0.94 0.63 0.43 0.36 0.30 0.26 0.22 0.20 0.21 0.25 0.31 0.36 0.36 0.48 0.70 0.76 0.83 0.89 0.77 0.59 0.50 0.50 0.50 0.53 0.48 0.28 0.20 0.20 0.21 0.21
1.05 1.29 1.21 1.29 1.38 1.33 1.29 1.38 1.37 1.24 1.02 1.20 1.23 0.89 0.54 0.40 0.35 0.24 0.21 0.18 0.17 0.15 0.17 0.24 0.31 0.36 0.40 0.47 0.63 0.71 0.81 0.80 0.67 0.58 0.58 0.59 0.65 0.65 0.41 0.29 0.27 0.23 0.26
1.13 1.22 1.24 1.23 1.27 1.28 1.17 1.13 1.20 1.09 0.89 1.05 1.14 1.06 0.59 0.39 0.32 0.26 0.29 0.34 0.31 0.26 0.24 0.27 0.30 0.40 0.47 0.58 0.69 0.56 0.57 0.73 0.80 0.79 0.72 0.61 0.59 0.63 0.54 0.48 0.43 0.40 0.43
1.45 1.41 1.32 1.18 1.04 1.02 0.92 0.93 1.03 1.04 0.92 0.92 1.09 1.21 0.88 0.58 0.50 0.36 0.37 0.38 0.39 0.39 0.37 0.39 0.39 0.46 0.53 0.64 0.77 0.78 0.56 0.62 0.77 0.95 0.92 0.73 0.55 0.54 0.58 0.60 0.61 0.58 0.59
1.31 1.14 1.01 0.96 0.88 0.85 0.75 0.73 0.80 0.81 0.79 0.77 0.85 0.98 1.06 1.05 0.92 0.50 0.31 0.28 0.35 0.40 0.46 0.44 0.39 0.43 0.52 0.66 0.80 0.99 0.79 0.62 0.60 0.78 0.89 0.80 0.66 0.56 0.55 0.61 0.77 0.76 0.63
1.00 0.83 0.75 0.71 0.67 0.65 0.58 0.56 0.55 0.55 0.58 0.61 0.70 0.81 0.93 1.02 1.06 0.90 0.53 0.46 0.49 0.47 0.50 0.46 0.46 0.48 0.50 0.62 0.79 0.84 0.92 0.82 0.72 0.61 0.63 0.70 0.75 0.69 0.69 0.85 1.06 1.18 1.05
0.65 0.51 0.46 0.48 0.53 0.57 0.51 0.47 0.45 0.46 0.51 0.58 0.65 0.72 0.79 0.79 0.86 0.96 0.76 0.63 0.55 0.49 0.52 0.56 0.57 0.62 0.59 0.64 0.68 0.85 0.84 0.67 0.61 0.57 0.53 0.56 0.63 0.68 0.73 0.91 1.21 1.45 1.54
0.55 0.46 0.41 0.41 0.46 0.50 0.45 0.40 0.41 0.46 0.54 0.59 0.63 0.69 0.77 0.78 0.83 0.95 0.91 0.83 0.74 0.69 0.70 0.71 0.59 0.50 0.41 0.47 0.52 0.56 0.48 0.40 0.36 0.36 0.36 0.39 0.45 0.55 0.71 0.86 1.06 1.27 1.43
0.55 0.52 0.47 0.46 0.45 0.46 0.42 0.41 0.38 0.43 0.51 0.54 0.53 0.65 0.77 0.81 0.90 1.03 1.06 1.01 0.89 0.82 0.78 0.73 0.60 0.48 0.42 0.44 0.39 0.33 0.29 0.27 0.20 0.17 0.18 0.19 0.25 0.35 0.54 0.70 0.83 0.97 1.08
0.49 0.54 0.53 0.52 0.53 0.55 0.55 0.58 0.58 0.61 0.71 0.75 0.78 0.84 0.89 0.87 0.86 0.91 0.96 0.97 0.96 0.83 0.72 0.67 0.58 0.49 0.47 0.49 0.42 0.35 0.38 0.25 0.14 0.11 0.10 0.11 0.16 0.24 0.29 0.36 0.49 0.64 0.76
0.40 0.48 0.54 0.54 0.55 0.53 0.55 0.64 0.80 0.93 0.98 0.99 0.99 1.02 1.03 0.99 0.95 0.97 0.93 0.96 1.03 0.95 0.72 0.59 0.56 0.53 0.51 0.43 0.39 0.36 0.30 0.18 0.12 0.08 0.07 0.07 0.10 0.14 0.14 0.17 0.25 0.36 0.48
0.35 0.38 0.44 0.48 0.50 0.53 0.54 0.60 0.72 0.88 0.95 0.95 0.95 0.98 0.94 0.89 0.85 0.82 0.83 0.89 0.97 0.96 0.75 0.58 0.60 0.60 0.58 0.53 0.48 0.39 0.30 0.22 0.16 0.11 0.06 0.05 0.06 0.08 0.09 0.11 0.15 0.20 0.29
0.33 0.34 0.34 0.37 0.38 0.42 0.48 0.57 0.67 0.77 0.82 0.82 0.77 0.73 0.69 0.63 0.61 0.60 0.63 0.66 0.70 0.80 0.78 0.64 0.66 0.65 0.62 0.60 0.62 0.56 0.41 0.27 0.21 0.19 0.12 0.09 0.06 0.06 0.07 0.09 0.14 0.20 0.25
0.25 0.26 0.27 0.31 0.38 0.50 0.58 0.63 0.66 0.68 0.68 0.69 0.72 0.71 0.61 0.53 0.50 0.47 0.49 0.49 0.49 0.60 0.64 0.62 0.61 0.64 0.61 0.57 0.58 0.58 0.54 0.41 0.28 0.22 0.19 0.15 0.11 0.09 0.09 0.09 0.13 0.21 0.27
0.18 0.21 0.26 0.32 0.40 0.49 0.57 0.62 0.62 0.60 0.55 0.50 0.51 0.53 0.52 0.47 0.42 0.40 0.39 0.38 0.39 0.48 0.55 0.59 0.59 0.64 0.64 0.58 0.54 0.55 0.65 0.58 0.48 0.37 0.31 0.25 0.23 0.19 0.15 0.13 0.12 0.16 0.26
0.17 0.20 0.25 0.30 0.34 0.38 0.41 0.37 0.34 0.34 0.32 0.28 0.27 0.29 0.32 0.35 0.36 0.34 0.32 0.35 0.38 0.41 0.43 0.44 0.45 0.53 0.62 0.68 0.62 0.56 0.66 0.70 0.65 0.52 0.43 0.34 0.31 0.26 0.23 0.18 0.15 0.15 0.21
0.14 0.17 0.22 0.26 0.26 0.26 0.31 0.21 0.13 0.12 0.15 0.18 0.21 0.24 0.26 0.26 0.28 0.29 0.29 0.31 0.34 0.35 0.34 0.34 0.34 0.42 0.51 0.59 0.66 0.67 0.67 0.66 0.68 0.66 0.59 0.54 0.46 0.40 0.38 0.32 0.22 0.17 0.18
0.12 0.13 0.14 0.14 0.15 0.18 0.19 0.14 0.07 0.07 0.10 0.11 0.14 0.16 0.18 0.22 0.21 0.20 0.20 0.20 0.20 0.23 0.27 0.29 0.28 0.28 0.30 0.30 0.39 0.52 0.68 0.82 0.89 0.86 0.81 0.86 0.71 0.57 0.51 0.42 0.25 0.17 0.16
0.15 0.13 0.11 0.10 0.13 0.14 0.12 0.10 0.08 0.07 0.11 0.13 0.13 0.12 0.11 0.12 0.13 0.14 0.14 0.13 0.11 0.12 0.15 0.18 0.20 0.22 0.22 0.22 0.24 0.28 0.38 0.57 0.80 0.92 0.90 0.92 0.88 0.80 0.69 0.58 0.40 0.25 0.19
0.19 0.16 0.13 0.13 0.14 0.16 0.13 0.09 0.08 0.09 0.14 0.16 0.16 0.13 0.09 0.08 0.09 0.11 0.12 0.13 0.12 0.11 0.12 0.13 0.15 0.18 0.21 0.20 0.17 0.15 0.15 0.19 0.33 0.48 0.63 0.80 0.85 0.83 0.81 0.71 0.53 0.34 0.22
0.24 0.19 0.16 0.16 0.17 0.21 0.20 0.14 0.10 0.13 0.20 0.21 0.24 0.18 0.13 0.09 0.08 0.09 0.11 0.12 0.12 0.11 0.10 0.10 0.11 0.15 0.17 0.17 0.16 0.11 0.08 0.08 0.11 0.16 0.18 0.31 0.52 0.66 0.80 0.80 0.71 0.58 0.43

GEFSMA_prec_meanprecacc_066.txt.gz
Total_Precipitation_Accumulation
0.35 0.39 0.38 0.37 0.36 0.47 0.59 0.71 0.77 0.98 1.10 0.89 0.70 0.66 0.67 0.74 0.72 0.81 0.73 0.63 0.61 0.70 0.91 1.01 0.92 0.85 0.77 0.71 0.67 0.63 0.58 0.51 0.45 0.40 0.45 0.50 0.53 0.55 0.52 0.46 0.41 0.35 0.30
0.52 0.54 0.51 0.54 0.52 0.57 0.66 0.80 0.94 1.18 1.16 1.09 0.86 0.73 0.71 0.70 0.66 0.71 0.71 0.76 0.74 0.71 0.73 0.82 0.87 0.83 0.77 0.72 0.65 0.59 0.54 0.52 0.44 0.34 0.30 0.35 0.40 0.44 0.48 0.50 0.46 0.38 0.32
0.71 0.72 0.63 0.63 0.75 0.87 0.94 0.97 1.10 1.29 1.09 1.12 0.92 0.85 0.75 0.67 0.58 0.58 0.65 0.68 0.67 0.65 0.68 0.73 0.75 0.73 0.73 0.74 0.73 0.66 0.54 0.46 0.40 0.34 0.30 0.31 0.33 0.33 0.34 0.39 0.42 0.39 0.32
0.89 0.99 0.85 0.81 1.14 1.20 1.20 1.30 1.43 1.41 1.28 1.26 1.10 0.93 0.77 0.69 0.56 0.51 0.48 0.51 0.56 0.52 0.61 0.69 0.67 0.63 0.69 0.80 0.89 0.90 0.72 0.57 0.46 0.40 0.35 0.35 0.37 0.35 0.29 0.28 0.30 0.29 0.25
1.12 1.27 1.17 1.25 1.50 1.50 1.44 1.42 1.62 1.54 1.37 1.34 1.26 1.01 0.72 0.60 0.48 0.41 0.37 0.33 0.37 0.43 0.44 0.48 0.49 0.52 0.67 0.91 1.01 0.97 0.87 0.73 0.58 0.49 0.46 0.45 0.50 0.42 0.28 0.23 0.26 0.26 0.22
1.35 1.55 1.39 1.38 1.57 1.63 1.55 1.52 1.44 1.45 1.30 1.30 1.26 0.98 0.68 0.46 0.40 0.33 0.29 0.26 0.23 0.24 0.29 0.36 0.41 0.39 0.50 0.74 0.82 0.91 0.98 0.88 0.70 0.60 0.60 0.61 0.65 0.57 0.33 0.24 0.23 0.24 0.24
1.31 1.52 1.41 1.45 1.49 1.42 1.37 1.45 1.44 1.30 1.06 1.24 1.27 0.93 0.57 0.42 0.38 0.26 0.23 0.21 0.19 0.18 0.20 0.27 0.36 0.41 0.44 0.49 0.65 0.75 0.87 0.87 0.74 0.66 0.65 0.67 0.75 0.75 0.48 0.34 0.31 0.25 0.28
1.37 1.41 1.40 1.36 1.36 1.36 1.23 1.18 1.25 1.13 0.93 1.09 1.16 1.08 0.62 0.41 0.34 0.27 0.30 0.35 0.32 0.28 0.26 0.29 0.32 0.43 0.49 0.61 0.71 0.57 0.59 0.78 0.86 0.85 0.78 0.66 0.64 0.70 0.60 0.54 0.49 0.43 0.45
1.63 1.57 1.47 1.33 1.14 1.09 0.98 0.99 1.08 1.08 0.96 0.95 1.12 1.23 0.90 0.59 0.51 0.37 0.38 0.39 0.39 0.39 0.37 0.40 0.40 0.47 0.54 0.66 0.81 0.80 0.58 0.65 0.82 1.01 0.99 0.78 0.59 0.58 0.63 0.64 0.66 0.63 0.64
1.46 1.28 1.13 1.06 0.97 0.93 0.81 0.77 0.85 0.85 0.82 0.79 0.88 1.00 1.08 1.06 0.93 0.50 0.32 0.29 0.35 0.40 0.46 0.45 0.40 0.43 0.53 0.67 0.82 1.00 0.80 0.63 0.63 0.84 0.97 0.87 0.71 0.60 0.58 0.65 0.82 0.82 0.68
1.12 0.94 0.84 0.79 0.73 0.72 0.65 0.60 0.59 0.59 0.62 0.64 0.72 0.82 0.94 1.03 1.06 0.90 0.53 0.47 0.50 0.47 0.50 0.46 0.46 0.48 0.50 0.63 0.80 0.85 0.93 0.84 0.74 0.64 0.67 0.75 0.80 0.74 0.73 0.90 1.12 1.25 1.12
0.75 0.62 0.57 0.57 0.60 0.64 0.58 0.52 0.51 0.50 0.55 0.62 0.68 0.73 0.80 0.80 0.86 0.96 0.76 0.63 0.55 0.49 0.52 0.56 0.57 0.62 0.59 0.65 0.69 0.86 0.85 0.68 0.62 0.59 0.55 0.59 0.67 0.73 0.79 0.97 1.28 1.53 1.62
0.60 0.52 0.49 0.50 0.55 0.60 0.55 0.48 0.47 0.52 0.60 0.65 0.67 0.72 0.79 0.79 0.84 0.95 0.91 0.83 0.74 0.69 0.70 0.71 0.60 0.50 0.42 0.48 0.54 0.56 0.49 0.40 0.37 0.37 0.38 0.41 0.48 0.59 0.75 0.91 1.12 1.35 1.51
0.58 0.56 0.51 0.51 0.51 0.54 0.52 0.52 0.49 0.54 0.60 0.63 0.59 0.71 0.80 0.84 0.91 1.04 1.07 1.02 0.89 0.82 0.78 0.73 0.60 0.48 0.43 0.44 0.39 0.34 0.30 0.28 0.20 0.18 0.20 0.21 0.28 0.39 0.58 0.73 0.87 1.01 1.13
0.50 0.56 0.55 0.56 0.57 0.59 0.61 0.66 0.69 0.74 0.85 0.88 0.89 0.94 0.97 0.92 0.90 0.94 0.99 0.99 0.98 0.84 0.73 0.67 0.59 0.50 0.48 0.50 0.42 0.35 0.39 0.26 0.15 0.12 0.12 0.12 0.19 0.29 0.36 0.41 0.53 0.66 0.80
0.40 0.48 0.55 0.56 0.58 0.57 0.60 0.70 0.88 1.03 1.10 1.13 1.13 1.16 1.15 1.08 1.03 1.02 0.97 0.99 1.06 0.97 0.74 0.59 0.57 0.55 0.53 0.43 0.39 0.36 0.31 0.20 0.13 0.11 0.08 0.08 0.12 0.17 0.18 0.21 0.29 0.39 0.52
0.35 0.38 0.44 0.48 0.51 0.54 0.57 0.64 0.77 0.96 1.05 1.07 1.08 1.11 1.08 1.02 0.96 0.90 0.89 0.94 1.01 0.99 0.78 0.60 0.62 0.62 0.61 0.55 0.49 0.40 0.30 0.22 0.17 0.12 0.08 0.07 0.07 0.10 0.13 0.15 0.18 0.23 0.32
0.33 0.34 0.34 0.37 0.38 0.43 0.49 0.58 0.70 0.80 0.89 0.91 0.89 0.87 0.82 0.77 0.73 0.70 0.72 0.73 0.75 0.85 0.81 0.67 0.69 0.69 0.65 0.62 0.63 0.57 0.41 0.27 0.21 0.19 0.13 0.10 0.08 0.08 0.09 0.12 0.18 0.23 0.28
0.25 0.26 0.27 0.31 0.39 0.50 0.59 0.64 0.67 0.70 0.71 0.74 0.80 0.82 0.75 0.68 0.65 0.61 0.59 0.57 0.55 0.65 0.69 0.67 0.65 0.69 0.65 0.59 0.60 0.59 0.55 0.42 0.28 0.23 0.19 0.16 0.13 0.10 0.10 0.11 0.15 0.23 0.29
0.18 0.22 0.26 0.32 0.41 0.49 0.57 0.63 0.63 0.61 0.57 0.53 0.55 0.60 0.61 0.57 0.54 0.54 0.52 0.49 0.48 0.55 0.61 0.64 0.64 0.69 0.69 0.61 0.56 0.57 0.66 0.59 0.48 0.37 0.31 0.25 0.24 0.20 0.16 0.14 0.14 0.18 0.28
0.18 0.22 0.26 0.31 0.35 0.38 0.41 0.38 0.35 0.35 0.33 0.30 0.30 0.33 0.37 0.42 0.44 0.43 0.43 0.46 0.49 0.50 0.51 0.50 0.51 0.58 0.67 0.71 0.65 0.58 0.67 0.71 0.66 0.54 0.44 0.35 0.31 0.27 0.24 0.19 0.16 0.16 0.22
0.16 0.20 0.24 0.28 0.28 0.26 0.31 0.21 0.13 0.13 0.16 0.19 0.23 0.26 0.28 0.29 0.32 0.35 0.35 0.38 0.43 0.44 0.43 0.42 0.41 0.48 0.57 0.63 0.69 0.69 0.69 0.67 0.69 0.67 0.60 0.55 0.47 0.42 0.39 0.33 0.23 0.18 0.19
0.15 0.17 0.18 0.18 0.19 0.21 0.19 0.14 0.07 0.08 0.11 0.13 0.15 0.17 0.20 0.23 0.24 0.23 0.24 0.23 0.25 0.29 0.33 0.37 0.37 0.36 0.37 0.37 0.44 0.55 0.70 0.84 0.90 0.86 0.82 0.88 0.73 0.59 0.51 0.43 0.26 0.18 0.17
0.20 0.18 0.17 0.15 0.18 0.19 0.14 0.11 0.08 0.08 0.13 0.14 0.15 0.14 0.13 0.13 0.14 0.16 0.17 0.16 0.14 0.15 0.19 0.23 0.26 0.30 0.33 0.33 0.33 0.33 0.42 0.61 0.83 0.94 0.91 0.94 0.90 0.82 0.70 0.58 0.41 0.25 0.19
0.26 0.23 0.20 0.19 0.21 0.22 0.16 0.11 0.09 0.12 0.17 0.19 0.18 0.15 0.11 0.09 0.10 0.12 0.14 0.16 0.16 0.15 0.16 0.17 0.19 0.25 0.31 0.31 0.28 0.22 0.20 0.24 0.38 0.52 0.66 0.83 0.88 0.86 0.82 0.71 0.53 0.34 0.22
0.32 0.26 0.23 0.23 0.24 0.27 0.25 0.15 0.11 0.16 0.23 0.25 0.27 0.21 0.14 0.10 0.10 0.10 0.13 0.14 0.15 0.14 0.14 0.15 0.15 0.19 0.22 0.25 0.24 0.18 0.13 0.13 0.15 0.19 0.20 0.33 0.54 0.68 0.82 0.81 0.72 0.58 0.43

GEFSMA_prec_meanprecacc_072.txt.gz
Total_Precipitation_Accumulation
0.47 0.52 0.49 0.49 0.50 0.63 0.76 0.85 0.91 1.13 1.28 1.09 0.88 0.83 0.85 0.93 0.86 0.92 0.84 0.76 0.71 0.76 0.94 1.04 0.94 0.86 0.78 0.72 0.69 0.66 0.62 0.56 0.51 0.46 0.49 0.54 0.56 0.57 0.53 0.47 0.41 0.36 0.31
0.69 0.71 0.68 0.70 0.65 0.68 0.81 1.00 1.11 1.41 1.40 1.30 1.02 0.93 0.91 0.93 0.89 0.87 0.85 0.91 0.84 0.76 0.76 0.84 0.90 0.86 0.80 0.75 0.68 0.62 0.57 0.57 0.50 0.39 0.34 0.39 0.44 0.47 0.50 0.52 0.47 0.39 0.33
0.89 0.92 0.83 0.82 0.92 1.03 1.14 1.17 1.28 1.50 1.26 1.26 1.05 1.00 0.94 0.83 0.73 0.70 0.78 0.84 0.81 0.72 0.72 0.76 0.78 0.76 0.78 0.80 0.78 0.71 0.58 0.51 0.45 0.39 0.34 0.34 0.36 0.36 0.37 0.42 0.45 0.41 0.34
1.05 1.19 1.08 1.02 1.35 1.40 1.40 1.51 1.60 1.58 1.45 1.40 1.22 1.01 0.89 0.85 0.69 0.61 0.58 0.62 0.70 0.62 0.69 0.73 0.70 0.66 0.73 0.85 0.94 0.97 0.80 0.62 0.50 0.44 0.39 0.39 0.41 0.38 0.32 0.31 0.34 0.31 0.27
1.28 1.48 1.40 1.46 1.71 1.72 1.66 1.60 1.80 1.75 1.55 1.49 1.36 1.08 0.80 0.70 0.59 0.49 0.44 0.41 0.47 0.51 0.53 0.55 0.53 0.56 0.71 0.95 1.06 1.04 0.95 0.79 0.61 0.52 0.50 0.49 0.54 0.47 0.32 0.26 0.28 0.28 0.24
1.51 1.76 1.60 1.61 1.81 1.87 1.78 1.70 1.61 1.63 1.44 1.40 1.32 1.04 0.74 0.52 0.46 0.39 0.33 0.30 0.29 0.28 0.33 0.42 0.48 0.42 0.53 0.77 0.86 0.97 1.06 0.95 0.75 0.64 0.64 0.66 0.71 0.63 0.38 0.27 0.26 0.27 0.27
1.49 1.74 1.65 1.73 1.78 1.71 1.63 1.65 1.61 1.45 1.17 1.32 1.33 0.97 0.60 0.46 0.41 0.29 0.26 0.24 0.21 0.21 0.23 0.32 0.42 0.45 0.47 0.51 0.67 0.78 0.92 0.94 0.80 0.70 0.70 0.72 0.82 0.82 0.54 0.39 0.35 0.28 0.31
1.56 1.64 1.66 1.67 1.69 1.66 1.48 1.40 1.46 1.27 1.03 1.16 1.22 1.13 0.66 0.45 0.37 0.29 0.33 0.38 0.35 0.32 0.29 0.33 0.38 0.48 0.54 0.67 0.74 0.58 0.62 0.82 0.91 0.91 0.84 0.71 0.70 0.74 0.66 0.60 0.55 0.48 0.49
1.74 1.73 1.68 1.57 1.42 1.36 1.23 1.21 1.29 1.24 1.06 1.03 1.19 1.30 0.95 0.64 0.56 0.41 0.41 0.41 0.42 0.43 0.40 0.43 0.44 0.53 0.59 0.72 0.86 0.83 0.59 0.67 0.85 1.07 1.06 0.84 0.64 0.61 0.66 0.70 0.73 0.68 0.67
1.54 1.38 1.27 1.23 1.17 1.12 1.01 0.96 1.02 1.02 0.95 0.88 0.96 1.08 1.15 1.14 1.01 0.58 0.37 0.31 0.38 0.43 0.49 0.47 0.42 0.47 0.57 0.71 0.87 1.02 0.80 0.64 0.65 0.88 1.04 0.94 0.76 0.63 0.61 0.70 0.89 0.89 0.73
1.18 1.01 0.93 0.91 0.88 0.88 0.82 0.76 0.76 0.75 0.77 0.77 0.84 0.94 1.04 1.12 1.13 0.98 0.62 0.53 0.54 0.50 0.52 0.50 0.50 0.51 0.53 0.66 0.84 0.87 0.93 0.84 0.75 0.66 0.71 0.81 0.86 0.78 0.77 0.94 1.19 1.33 1.19
0.78 0.67 0.63 0.65 0.70 0.75 0.72 0.69 0.68 0.67 0.70 0.78 0.80 0.86 0.93 0.91 0.94 1.02 0.82 0.69 0.61 0.52 0.54 0.58 0.61 0.66 0.62 0.68 0.71 0.87 0.85 0.69 0.63 0.60 0.56 0.61 0.71 0.78 0.83 1.02 1.35 1.62 1.72
0.61 0.55 0.53 0.55 0.62 0.69 0.65 0.61 0.60 0.68 0.78 0.83 0.81 0.84 0.91 0.90 0.93 1.03 0.98 0.88 0.79 0.72 0.72 0.73 0.62 0.53 0.44 0.50 0.55 0.57 0.49 0.41 0.37 0.37 0.38 0.42 0.49 0.61 0.78 0.97 1.19 1.42 1.60
0.58 0.57 0.52 0.52 0.54 0.58 0.58 0.60 0.60 0.66 0.76 0.81 0.76 0.88 0.95 0.95 1.02 1.14 1.16 1.10 0.97 0.87 0.81 0.75 0.62 0.49 0.44 0.46 0.40 0.34 0.31 0.28 0.21 0.18 0.20 0.22 0.29 0.40 0.59 0.75 0.91 1.06 1.18
0.50 0.56 0.56 0.57 0.58 0.62 0.64 0.70 0.75 0.83 0.96 1.02 1.05 1.12 1.14 1.08 1.05 1.07 1.12 1.12 1.10 0.95 0.80 0.71 0.61 0.52 0.49 0.51 0.43 0.36 0.40 0.27 0.15 0.12 0.12 0.13 0.19 0.30 0.36 0.43 0.55 0.69 0.83
0.41 0.49 0.56 0.57 0.59 0.59 0.63 0.73 0.92 1.08 1.17 1.21 1.24 1.29 1.31 1.26 1.22 1.22 1.15 1.16 1.21 1.09 0.85 0.66 0.61 0.58 0.55 0.45 0.40 0.37 0.32 0.20 0.13 0.11 0.08 0.08 0.12 0.18 0.19 0.22 0.30 0.41 0.54
0.36 0.39 0.45 0.50 0.52 0.55 0.58 0.67 0.80 0.99 1.10 1.12 1.14 1.19 1.19 1.17 1.13 1.09 1.10 1.15 1.20 1.16 0.92 0.70 0.71 0.73 0.69 0.60 0.51 0.42 0.31 0.23 0.17 0.12 0.08 0.07 0.07 0.10 0.13 0.16 0.19 0.23 0.33
0.35 0.36 0.36 0.39 0.40 0.44 0.49 0.59 0.72 0.83 0.92 0.95 0.94 0.93 0.90 0.87 0.86 0.86 0.89 0.93 0.97 1.07 1.01 0.83 0.84 0.85 0.81 0.74 0.69 0.60 0.43 0.27 0.21 0.19 0.13 0.10 0.08 0.08 0.10 0.13 0.18 0.23 0.29
0.27 0.28 0.30 0.34 0.41 0.52 0.60 0.65 0.68 0.71 0.74 0.77 0.83 0.87 0.80 0.75 0.74 0.74 0.74 0.72 0.72 0.85 0.91 0.88 0.84 0.87 0.82 0.76 0.69 0.63 0.57 0.42 0.28 0.23 0.19 0.16 0.13 0.10 0.10 0.11 0.16 0.23 0.30
0.21 0.25 0.30 0.36 0.44 0.52 0.59 0.64 0.64 0.62 0.58 0.55 0.58 0.63 0.65 0.62 0.61 0.63 0.65 0.63 0.63 0.72 0.79 0.83 0.84 0.87 0.86 0.77 0.66 0.61 0.68 0.61 0.49 0.38 0.31 0.26 0.24 0.20 0.16 0.14 0.14 0.18 0.28
0.21 0.26 0.31 0.37 0.41 0.43 0.44 0.40 0.37 0.37 0.36 0.33 0.32 0.36 0.40 0.45 0.48 0.50 0.52 0.60 0.63 0.64 0.65 0.66 0.69 0.76 0.86 0.87 0.74 0.64 0.71 0.73 0.67 0.54 0.44 0.36 0.31 0.27 0.24 0.19 0.16 0.16 0.23
0.21 0.26 0.32 0.37 0.37 0.32 0.36 0.26 0.16 0.15 0.20 0.23 0.27 0.29 0.31 0.31 0.34 0.38 0.40 0.46 0.56 0.58 0.57 0.57 0.59 0.66 0.75 0.82 0.86 0.80 0.76 0.70 0.70 0.68 0.61 0.56 0.47 0.42 0.39 0.33 0.23 0.19 0.19
0.22 0.25 0.26 0.26 0.28 0.31 0.29 0.21 0.12 0.11 0.14 0.17 0.20 0.23 0.22 0.24 0.25 0.25 0.26 0.28 0.32 0.38 0.43 0.49 0.51 0.53 0.56 0.57 0.64 0.68 0.79 0.89 0.92 0.87 0.82 0.88 0.74 0.59 0.52 0.44 0.27 0.18 0.17
0.28 0.28 0.27 0.25 0.30 0.30 0.23 0.18 0.14 0.12 0.17 0.18 0.19 0.19 0.18 0.16 0.17 0.19 0.21 0.20 0.19 0.20 0.24 0.29 0.35 0.44 0.52 0.56 0.57 0.52 0.55 0.71 0.90 0.97 0.92 0.94 0.90 0.82 0.70 0.59 0.41 0.26 0.20
0.35 0.32 0.30 0.31 0.34 0.34 0.26 0.18 0.14 0.17 0.22 0.23 0.22 0.18 0.15 0.13 0.13 0.13 0.18 0.21 0.21 0.20 0.20 0.21 0.24 0.34 0.45 0.49 0.52 0.45 0.36 0.33 0.45 0.57 0.68 0.84 0.88 0.86 0.83 0.72 0.54 0.35 0.23
0.42 0.36 0.33 0.34 0.37 0.42 0.37 0.23 0.17 0.22 0.29 0.30 0.33 0.26 0.18 0.14 0.13 0.11 0.15 0.19 0.20 0.19 0.21 0.22 0.21 0.25 0.30 0.36 0.41 0.38 0.30 0.23 0.21 0.24 0.23 0.35 0.55 0.69 0.83 0.82 0.72 0.58 0.43

GEFSMA_prec_meanprecacc_078.txt.gz
Total_Precipitation_Accumulation
0.71 0.73 0.61 0.61 0.64 0.78 0.93 1.05 1.11 1.34 1.47 1.24 0.99 0.93 0.94 1.04 0.98 1.05 0.97 0.91 0.86 0.92 1.10 1.17 1.04 0.92 0.81 0.74 0.70 0.67 0.63 0.58 0.53 0.48 0.50 0.56 0.57 0.58 0.54 0.47 0.42 0.36 0.31
0.88 0.89 0.81 0.83 0.80 0.85 1.01 1.22 1.38 1.68 1.66 1.53 1.19 1.06 1.05 1.08 1.04 1.03 1.03 1.09 1.01 0.92 0.91 0.98 1.02 0.94 0.86 0.79 0.71 0.63 0.58 0.59 0.52 0.40 0.36 0.41 0.45 0.48 0.51 0.53 0.48 0.39 0.33
1.02 1.03 0.92 0.91 1.02 1.19 1.34 1.39 1.55 1.79 1.50 1.45 1.20 1.14 1.07 0.96 0.87 0.87 0.99 1.04 0.95 0.86 0.88 0.90 0.89 0.85 0.84 0.85 0.81 0.74 0.59 0.52 0.46 0.40 0.36 0.35 0.38 0.38 0.40 0.45 0.47 0.42 0.34
1.15 1.29 1.15 1.09 1.45 1.55 1.59 1.71 1.83 1.81 1.65 1.58 1.37 1.16 1.02 0.96 0.78 0.72 0.71 0.75 0.82 0.72 0.79 0.85 0.80 0.74 0.80 0.90 0.98 1.00 0.83 0.65 0.52 0.46 0.40 0.40 0.43 0.40 0.34 0.34 0.38 0.34 0.28
1.34 1.53 1.45 1.52 1.81 1.87 1.83 1.78 2.00 1.98 1.79 1.70 1.53 1.22 0.93 0.82 0.69 0.60 0.53 0.49 0.56 0.60 0.60 0.62 0.63 0.64 0.79 1.01 1.11 1.09 1.00 0.82 0.64 0.54 0.52 0.51 0.57 0.49 0.34 0.28 0.31 0.32 0.26
1.54 1.79 1.64 1.65 1.86 1.95 1.88 1.83 1.78 1.84 1.65 1.60 1.49 1.17 0.85 0.62 0.57 0.47 0.39 0.36 0.36 0.36 0.41 0.49 0.55 0.48 0.59 0.82 0.91 1.02 1.12 1.00 0.79 0.67 0.67 0.69 0.75 0.66 0.40 0.29 0.29 0.29 0.29
1.50 1.76 1.67 1.77 1.83 1.77 1.74 1.80 1.79 1.63 1.34 1.52 1.53 1.11 0.71 0.56 0.51 0.35 0.32 0.30 0.26 0.26 0.30 0.39 0.49 0.51 0.50 0.54 0.71 0.81 0.96 1.00 0.85 0.75 0.75 0.76 0.86 0.86 0.56 0.41 0.38 0.32 0.35
1.57 1.65 1.69 1.70 1.74 1.72 1.61 1.57 1.65 1.49 1.24 1.37 1.41 1.29 0.77 0.55 0.45 0.35 0.38 0.42 0.40 0.37 0.34 0.38 0.42 0.53 0.58 0.69 0.74 0.60 0.65 0.87 0.97 0.96 0.90 0.76 0.74 0.78 0.68 0.62 0.58 0.51 0.52
1.74 1.74 1.69 1.58 1.46 1.42 1.33 1.34 1.45 1.42 1.26 1.23 1.38 1.48 1.09 0.73 0.63 0.47 0.46 0.46 0.48 0.49 0.45 0.46 0.47 0.55 0.63 0.75 0.87 0.84 0.61 0.70 0.90 1.12 1.12 0.88 0.67 0.64 0.69 0.72 0.75 0.70 0.70
1.54 1.39 1.27 1.25 1.19 1.20 1.10 1.05 1.15 1.18 1.11 1.05 1.16 1.26 1.29 1.23 1.09 0.65 0.43 0.37 0.43 0.50 0.54 0.51 0.45 0.49 0.59 0.74 0.88 1.04 0.81 0.65 0.67 0.91 1.09 1.00 0.79 0.65 0.63 0.72 0.93 0.93 0.76
1.18 1.02 0.93 0.92 0.90 0.91 0.86 0.83 0.84 0.86 0.89 0.90 1.02 1.16 1.22 1.24 1.21 1.06 0.69 0.60 0.61 0.55 0.56 0.54 0.54 0.54 0.55 0.67 0.86 0.89 0.95 0.85 0.75 0.67 0.74 0.85 0.90 0.81 0.79 0.97 1.23 1.38 1.23
0.79 0.67 0.64 0.66 0.71 0.77 0.75 0.73 0.75 0.75 0.80 0.89 0.92 1.01 1.11 1.08 1.07 1.12 0.90 0.76 0.68 0.59 0.59 0.62 0.64 0.69 0.64 0.69 0.73 0.89 0.87 0.70 0.63 0.60 0.57 0.63 0.73 0.80 0.85 1.04 1.39 1.67 1.77
0.62 0.55 0.53 0.56 0.63 0.69 0.66 0.63 0.63 0.73 0.85 0.92 0.89 0.93 1.03 1.05 1.07 1.16 1.09 0.97 0.86 0.78 0.79 0.80 0.66 0.56 0.47 0.52 0.57 0.60 0.53 0.42 0.38 0.38 0.39 0.43 0.51 0.63 0.80 0.99 1.22 1.47 1.66
0.58 0.57 0.52 0.53 0.54 0.59 0.58 0.61 0.61 0.68 0.79 0.86 0.84 0.96 1.04 1.08 1.19 1.29 1.29 1.23 1.08 0.96 0.89 0.83 0.69 0.55 0.49 0.50 0.43 0.37 0.33 0.30 0.22 0.20 0.21 0.23 0.29 0.41 0.60 0.77 0.93 1.08 1.21
0.50 0.57 0.56 0.57 0.59 0.63 0.65 0.71 0.76 0.84 0.98 1.04 1.09 1.18 1.21 1.17 1.19 1.23 1.26 1.27 1.26 1.09 0.90 0.79 0.69 0.60 0.57 0.57 0.47 0.39 0.42 0.28 0.17 0.14 0.13 0.14 0.20 0.30 0.37 0.43 0.56 0.70 0.84
0.41 0.49 0.56 0.57 0.59 0.60 0.64 0.74 0.93 1.09 1.18 1.23 1.26 1.33 1.37 1.32 1.31 1.34 1.30 1.31 1.36 1.24 0.98 0.77 0.71 0.67 0.65 0.54 0.47 0.42 0.34 0.22 0.16 0.13 0.10 0.09 0.13 0.19 0.19 0.22 0.31 0.41 0.54
0.36 0.40 0.46 0.50 0.53 0.56 0.59 0.68 0.82 1.00 1.11 1.14 1.16 1.22 1.23 1.22 1.20 1.18 1.22 1.30 1.37 1.33 1.08 0.85 0.87 0.88 0.82 0.70 0.59 0.48 0.35 0.26 0.19 0.14 0.09 0.08 0.08 0.11 0.13 0.16 0.19 0.24 0.33
0.35 0.36 0.37 0.39 0.41 0.45 0.51 0.61 0.74 0.85 0.93 0.96 0.96 0.95 0.93 0.91 0.91 0.92 0.98 1.04 1.09 1.21 1.16 0.99 1.02 1.04 0.99 0.91 0.82 0.69 0.48 0.31 0.24 0.21 0.15 0.11 0.09 0.09 0.10 0.13 0.18 0.23 0.29
0.27 0.28 0.30 0.35 0.42 0.52 0.61 0.67 0.71 0.74 0.76 0.79 0.85 0.89 0.82 0.78 0.78 0.78 0.80 0.80 0.81 0.95 1.02 1.01 1.01 1.04 1.02 0.99 0.86 0.74 0.64 0.46 0.31 0.25 0.20 0.17 0.13 0.11 0.10 0.11 0.16 0.24 0.30
0.21 0.25 0.30 0.37 0.45 0.52 0.61 0.66 0.66 0.65 0.61 0.57 0.60 0.65 0.67 0.65 0.64 0.66 0.69 0.69 0.70 0.81 0.91 0.96 1.00 1.08 1.06 0.98 0.86 0.73 0.75 0.65 0.51 0.38 0.32 0.26 0.25 0.21 0.16 0.14 0.14 0.18 0.29
0.21 0.26 0.31 0.38 0.42 0.44 0.45 0.42 0.41 0.40 0.39 0.36 0.35 0.38 0.43 0.48 0.51 0.52 0.55 0.64 0.69 0.71 0.76 0.80 0.83 0.95 1.09 1.09 0.91 0.77 0.79 0.78 0.70 0.55 0.45 0.36 0.32 0.27 0.24 0.20 0.16 0.16 0.23
0.22 0.27 0.32 0.37 0.38 0.33 0.37 0.28 0.20 0.20 0.24 0.28 0.31 0.32 0.33 0.35 0.39 0.42 0.43 0.50 0.61 0.66 0.66 0.67 0.72 0.83 0.95 1.02 1.04 0.97 0.87 0.76 0.73 0.69 0.61 0.56 0.47 0.42 0.40 0.33 0.23 0.19 0.19
0.23 0.26 0.27 0.27 0.29 0.32 0.31 0.24 0.15 0.15 0.18 0.21 0.25 0.27 0.25 0.26 0.28 0.29 0.31 0.32 0.36 0.43 0.51 0.60 0.63 0.66 0.72 0.79 0.84 0.86 0.93 0.98 0.97 0.89 0.84 0.89 0.74 0.59 0.52 0.44 0.27 0.19 0.18
0.29 0.28 0.27 0.26 0.31 0.31 0.26 0.21 0.16 0.15 0.20 0.22 0.23 0.24 0.23 0.20 0.20 0.23 0.26 0.25 0.23 0.24 0.28 0.36 0.45 0.56 0.66 0.74 0.79 0.72 0.74 0.85 0.99 1.03 0.95 0.95 0.91 0.82 0.70 0.59 0.42 0.27 0.20
0.35 0.32 0.31 0.32 0.35 0.36 0.29 0.21 0.17 0.19 0.25 0.26 0.27 0.24 0.22 0.18 0.17 0.17 0.22 0.25 0.26 0.24 0.24 0.26 0.32 0.45 0.61 0.65 0.72 0.68 0.56 0.50 0.56 0.63 0.72 0.85 0.89 0.86 0.83 0.72 0.54 0.36 0.23
0.43 0.37 0.34 0.36 0.40 0.44 0.41 0.26 0.21 0.25 0.32 0.33 0.37 0.31 0.23 0.20 0.18 0.16 0.18 0.21 0.22 0.23 0.24 0.24 0.25 0.31 0.41 0.51 0.57 0.58 0.52 0.41 0.34 0.33 0.29 0.37 0.56 0.69 0.83 0.82 0.72 0.58 0.44

GEFSMA_prec_meanprecacc_084.txt.gz
Total_Precipitation_Accumulation
0.81 0.85 0.74 0.76 0.80 0.96 1.14 1.26 1.33 1.59 1.72 1.48 1.22 1.11 1.06 1.12 1.05 1.11 1.01 0.95 0.91 0.98 1.21 1.33 1.20 1.05 0.90 0.80 0.75 0.70 0.66 0.60 0.55 0.49 0.51 0.56 0.57 0.58 0.54 0.48 0.42 0.37 0.31
1.02 1.06 0.99 1.01 0.96 0.99 1.16 1.37 1.54 1.88 1.91 1.79 1.42 1.28 1.21 1.20 1.13 1.10 1.10 1.14 1.07 0.99 1.01 1.12 1.19 1.10 0.99 0.88 0.77 0.68 0.62 0.61 0.54 0.42 0.37 0.42 0.46 0.48 0.52 0.54 0.48 0.40 0.34
1.15 1.18 1.06 1.03 1.11 1.26 1.42 1.48 1.67 1.96 1.69 1.67 1.42 1.35 1.24 1.08 0.95 0.95 1.07 1.11 1.00 0.93 0.99 1.03 1.03 1.02 1.01 0.99 0.92 0.81 0.65 0.57 0.50 0.43 0.37 0.37 0.40 0.40 0.41 0.46 0.48 0.42 0.35
1.22 1.36 1.22 1.15 1.50 1.61 1.67 1.81 1.95 1.94 1.79 1.74 1.52 1.30 1.18 1.11 0.89 0.80 0.80 0.83 0.89 0.76 0.86 0.97 0.93 0.89 0.97 1.07 1.13 1.11 0.91 0.71 0.59 0.51 0.44 0.43 0.46 0.43 0.36 0.36 0.40 0.36 0.28
1.39 1.58 1.51 1.59 1.88 1.94 1.91 1.86 2.08 2.06 1.89 1.81 1.65 1.34 1.06 0.97 0.83 0.72 0.62 0.56 0.62 0.66 0.66 0.72 0.76 0.78 0.96 1.19 1.27 1.24 1.11 0.90 0.69 0.59 0.56 0.56 0.60 0.52 0.36 0.31 0.35 0.36 0.28
1.57 1.82 1.67 1.68 1.90 1.99 1.92 1.88 1.84 1.91 1.74 1.72 1.64 1.29 0.94 0.72 0.68 0.57 0.46 0.43 0.42 0.42 0.47 0.56 0.63 0.58 0.72 0.98 1.06 1.17 1.26 1.11 0.86 0.72 0.71 0.74 0.79 0.69 0.42 0.31 0.32 0.33 0.33
1.51 1.77 1.68 1.78 1.83 1.78 1.75 1.81 1.81 1.67 1.40 1.61 1.64 1.21 0.78 0.63 0.59 0.41 0.38 0.36 0.32 0.31 0.36 0.46 0.55 0.57 0.56 0.62 0.81 0.93 1.10 1.12 0.94 0.82 0.80 0.82 0.91 0.90 0.59 0.43 0.40 0.35 0.38
1.57 1.65 1.69 1.70 1.74 1.73 1.61 1.58 1.66 1.50 1.27 1.43 1.50 1.39 0.87 0.63 0.51 0.39 0.43 0.48 0.45 0.43 0.40 0.43 0.49 0.58 0.64 0.73 0.78 0.66 0.74 0.98 1.09 1.06 0.96 0.82 0.79 0.82 0.71 0.66 0.61 0.54 0.54
1.74 1.74 1.69 1.58 1.46 1.42 1.33 1.34 1.45 1.44 1.29 1.29 1.47 1.59 1.20 0.81 0.70 0.54 0.52 0.52 0.54 0.56 0.51 0.51 0.52 0.61 0.69 0.81 0.91 0.89 0.68 0.78 1.00 1.23 1.20 0.95 0.72 0.67 0.72 0.75 0.78 0.72 0.72
1.54 1.39 1.27 1.25 1.20 1.20 1.10 1.05 1.16 1.19 1.12 1.08 1.21 1.34 1.39 1.33 1.19 0.74 0.50 0.43 0.51 0.57 0.61 0.56 0.49 0.53 0.65 0.79 0.93 1.07 0.85 0.70 0.74 1.02 1.18 1.07 0.85 0.69 0.66 0.75 0.97 0.97 0.79
1.18 1.02 0.93 0.92 0.90 0.91 0.87 0.83 0.85 0.87 0.91 0.92 1.06 1.21 1.30 1.32 1.29 1.14 0.76 0.67 0.67 0.62 0.63 0.60 0.59 0.58 0.59 0.72 0.90 0.93 0.98 0.88 0.79 0.73 0.81 0.92 0.97 0.87 0.83 1.01 1.30 1.45 1.29
0.79 0.67 0.64 0.66 0.71 0.77 0.75 0.73 0.75 0.75 0.81 0.92 0.96 1.07 1.19 1.17 1.16 1.21 0.97 0.84 0.76 0.65 0.66 0.69 0.69 0.73 0.68 0.73 0.77 0.93 0.91 0.73 0.65 0.63 0.61 0.68 0.80 0.86 0.90 1.09 1.44 1.76 1.86
0.62 0.55 0.53 0.56 0.63 0.69 0.66 0.63 0.63 0.73 0.85 0.93 0.92 0.99 1.10 1.12 1.15 1.23 1.17 1.05 0.94 0.86 0.87 0.88 0.72 0.61 0.52 0.55 0.60 0.63 0.56 0.46 0.41 0.40 0.42 0.46 0.54 0.67 0.84 1.03 1.27 1.55 1.75
0.58 0.57 0.52 0.53 0.54 0.59 0.58 0.61 0.61 0.68 0.80 0.87 0.85 0.97 1.07 1.13 1.25 1.36 1.36 1.32 1.17 1.04 0.98 0.91 0.75 0.60 0.53 0.53 0.46 0.41 0.36 0.33 0.25 0.22 0.24 0.25 0.32 0.44 0.62 0.78 0.95 1.12 1.26
0.50 0.57 0.56 0.57 0.59 0.63 0.65 0.71 0.76 0.84 0.98 1.04 1.09 1.19 1.22 1.19 1.22 1.29 1.33 1.35 1.36 1.19 1.00 0.89 0.77 0.65 0.61 0.61 0.51 0.43 0.44 0.31 0.19 0.16 0.16 0.16 0.22 0.32 0.38 0.44 0.57 0.71 0.85
0.41 0.49 0.56 0.57 0.59 0.60 0.64 0.74 0.93 1.09 1.18 1.23 1.26 1.33 1.37 1.33 1.33 1.38 1.36 1.39 1.45 1.34 1.11 0.89 0.80 0.74 0.70 0.58 0.51 0.46 0.38 0.25 0.18 0.15 0.13 0.12 0.15 0.20 0.21 0.24 0.32 0.42 0.55
0.36 0.40 0.46 0.50 0.53 0.56 0.59 0.68 0.82 1.00 1.11 1.14 1.16 1.23 1.24 1.22 1.21 1.20 1.26 1.36 1.45 1.43 1.20 1.00 0.98 0.98 0.91 0.77 0.65 0.53 0.40 0.29 0.21 0.16 0.12 0.10 0.10 0.13 0.15 0.17 0.21 0.25 0.34
0.35 0.36 0.37 0.39 0.41 0.45 0.51 0.61 0.74 0.85 0.93 0.96 0.96 0.96 0.93 0.91 0.93 0.93 1.01 1.09 1.17 1.31 1.27 1.13 1.17 1.18 1.12 1.01 0.91 0.77 0.54 0.35 0.26 0.23 0.17 0.14 0.11 0.11 0.12 0.14 0.20 0.25 0.30
0.27 0.28 0.30 0.35 0.42 0.52 0.61 0.67 0.71 0.74 0.76 0.79 0.85 0.89 0.83 0.78 0.79 0.80 0.82 0.83 0.88 1.05 1.13 1.14 1.16 1.21 1.20 1.15 1.00 0.84 0.72 0.52 0.35 0.27 0.23 0.19 0.16 0.13 0.12 0.13 0.17 0.25 0.31
0.21 0.25 0.30 0.37 0.45 0.52 0.61 0.66 0.66 0.65 0.61 0.57 0.61 0.66 0.68 0.65 0.64 0.68 0.71 0.72 0.75 0.88 1.01 1.08 1.14 1.24 1.24 1.16 1.05 0.88 0.85 0.71 0.56 0.43 0.36 0.29 0.28 0.23 0.19 0.16 0.16 0.20 0.30
0.21 0.26 0.31 0.38 0.42 0.44 0.45 0.42 0.41 0.41 0.39 0.36 0.35 0.38 0.44 0.49 0.52 0.53 0.57 0.66 0.73 0.78 0.86 0.91 0.97 1.10 1.27 1.28 1.08 0.93 0.93 0.89 0.77 0.60 0.49 0.40 0.35 0.29 0.26 0.21 0.18 0.18 0.24
0.22 0.27 0.32 0.37 0.38 0.33 0.37 0.28 0.20 0.20 0.24 0.28 0.31 0.32 0.34 0.37 0.41 0.43 0.44 0.51 0.63 0.70 0.74 0.78 0.84 0.95 1.10 1.20 1.21 1.15 1.02 0.89 0.82 0.74 0.65 0.60 0.52 0.46 0.42 0.34 0.25 0.20 0.20
0.23 0.26 0.27 0.27 0.29 0.32 0.31 0.24 0.15 0.15 0.18 0.21 0.25 0.28 0.26 0.27 0.31 0.32 0.33 0.34 0.37 0.46 0.56 0.67 0.73 0.77 0.85 0.95 1.03 1.03 1.07 1.08 1.04 0.94 0.88 0.92 0.77 0.63 0.55 0.46 0.29 0.20 0.19
0.29 0.28 0.27 0.26 0.31 0.31 0.27 0.22 0.17 0.15 0.20 0.22 0.24 0.25 0.23 0.20 0.21 0.25 0.29 0.28 0.26 0.26 0.31 0.41 0.52 0.65 0.79 0.91 1.00 0.93 0.92 1.00 1.10 1.11 1.00 0.99 0.93 0.84 0.72 0.61 0.44 0.28 0.21
0.35 0.32 0.31 0.32 0.35 0.36 0.30 0.22 0.18 0.20 0.26 0.27 0.27 0.24 0.22 0.19 0.18 0.19 0.24 0.29 0.30 0.28 0.27 0.30 0.37 0.55 0.74 0.82 0.95 0.92 0.78 0.69 0.70 0.72 0.77 0.89 0.91 0.88 0.85 0.74 0.57 0.37 0.25
0.43 0.37 0.34 0.36 0.40 0.45 0.41 0.28 0.22 0.25 0.33 0.34 0.38 0.32 0.25 0.21 0.21 0.19 0.21 0.24 0.26 0.26 0.28 0.27 0.29 0.38 0.52 0.65 0.75 0.81 0.75 0.61 0.48 0.43 0.35 0.41 0.58 0.71 0.85 0.84 0.74 0.60 0.44

GEFSMA_prec_meanprecacc_090.txt.gz
Total_Precipitation_Accumulation
1.01 1.04 0.94 0.93 0.96 1.11 1.27 1.39 1.44 1.71 1.86 1.61 1.35 1.22 1.17 1.23 1.13 1.17 1.05 0.98 0.95 1.03 1.29 1.46 1.37 1.24 1.05 0.90 0.82 0.75 0.69 0.63 0.57 0.51 0.52 0.57 0.58 0.59 0.55 0.48 0.43 0.37 0.32
1.20 1.27 1.22 1.20 1.10 1.12 1.28 1.48 1.64 2.00 2.03 1.91 1.55 1.39 1.32 1.29 1.20 1.16 1.14 1.19 1.10 1.03 1.06 1.20 1.34 1.30 1.19 1.05 0.88 0.75 0.67 0.64 0.56 0.45 0.39 0.43 0.47 0.49 0.52 0.54 0.49 0.40 0.34
1.28 1.32 1.20 1.14 1.21 1.36 1.53 1.59 1.79 2.08 1.77 1.75 1.52 1.47 1.34 1.16 1.01 0.99 1.13 1.19 1.07 1.00 1.05 1.10 1.14 1.16 1.19 1.20 1.10 0.93 0.73 0.63 0.54 0.46 0.40 0.39 0.41 0.41 0.41 0.46 0.48 0.43 0.35
1.30 1.43 1.29 1.21 1.56 1.68 1.74 1.88 2.02 2.02 1.88 1.83 1.62 1.41 1.27 1.19 0.94 0.85 0.86 0.89 0.96 0.83 0.94 1.04 1.03 1.00 1.11 1.25 1.33 1.30 1.06 0.82 0.66 0.56 0.47 0.45 0.48 0.45 0.37 0.37 0.41 0.36 0.28
1.44 1.64 1.56 1.64 1.92 1.99 1.96 1.90 2.12 2.10 1.95 1.89 1.75 1.43 1.14 1.04 0.89 0.78 0.68 0.61 0.68 0.73 0.75 0.79 0.83 0.87 1.09 1.36 1.45 1.45 1.35 1.08 0.81 0.68 0.62 0.59 0.63 0.54 0.38 0.32 0.36 0.36 0.28
1.62 1.87 1.71 1.72 1.93 2.02 1.96 1.91 1.88 1.95 1.78 1.77 1.69 1.36 1.01 0.77 0.73 0.62 0.52 0.49 0.47 0.47 0.54 0.63 0.73 0.65 0.82 1.13 1.25 1.39 1.50 1.34 1.02 0.83 0.79 0.79 0.82 0.71 0.43 0.33 0.33 0.34 0.33
1.52 1.78 1.69 1.79 1.85 1.79 1.76 1.83 1.83 1.69 1.43 1.64 1.67 1.25 0.83 0.67 0.63 0.46 0.44 0.43 0.38 0.36 0.43 0.54 0.66 0.68 0.65 0.71 0.92 1.08 1.30 1.35 1.15 0.97 0.90 0.88 0.94 0.92 0.61 0.44 0.41 0.36 0.39
1.58 1.66 1.69 1.71 1.74 1.73 1.61 1.58 1.67 1.51 1.28 1.45 1.53 1.43 0.91 0.68 0.55 0.43 0.48 0.52 0.50 0.50 0.48 0.51 0.60 0.70 0.72 0.82 0.85 0.72 0.87 1.16 1.29 1.24 1.10 0.90 0.83 0.84 0.73 0.67 0.62 0.54 0.55
1.74 1.75 1.69 1.58 1.46 1.42 1.33 1.35 1.46 1.45 1.30 1.30 1.49 1.64 1.26 0.88 0.77 0.60 0.58 0.57 0.60 0.64 0.60 0.60 0.62 0.72 0.79 0.92 1.01 0.94 0.75 0.87 1.14 1.40 1.35 1.05 0.78 0.70 0.74 0.77 0.79 0.73 0.72
1.54 1.39 1.28 1.25 1.20 1.20 1.10 1.06 1.16 1.20 1.13 1.09 1.22 1.37 1.44 1.38 1.25 0.81 0.56 0.51 0.59 0.66 0.70 0.64 0.57 0.63 0.75 0.89 1.04 1.13 0.88 0.74 0.82 1.17 1.36 1.22 0.95 0.73 0.69 0.77 0.99 0.98 0.79
1.19 1.02 0.94 0.92 0.91 0.92 0.87 0.84 0.86 0.88 0.92 0.93 1.06 1.23 1.32 1.36 1.35 1.21 0.84 0.76 0.77 0.69 0.70 0.67 0.67 0.67 0.69 0.84 1.03 1.01 1.02 0.91 0.83 0.81 0.94 1.06 1.09 0.94 0.86 1.04 1.33 1.47 1.30
0.79 0.68 0.64 0.66 0.72 0.77 0.76 0.74 0.76 0.76 0.82 0.93 0.97 1.08 1.21 1.20 1.20 1.26 1.05 0.93 0.88 0.76 0.75 0.78 0.78 0.82 0.78 0.84 0.85 1.00 0.98 0.78 0.69 0.67 0.67 0.75 0.88 0.92 0.94 1.12 1.49 1.79 1.88
0.62 0.55 0.53 0.56 0.63 0.70 0.67 0.63 0.64 0.74 0.86 0.94 0.93 1.00 1.13 1.16 1.19 1.28 1.23 1.12 1.03 0.97 0.99 0.98 0.81 0.71 0.62 0.66 0.70 0.72 0.64 0.52 0.45 0.43 0.44 0.49 0.58 0.71 0.88 1.06 1.31 1.59 1.81
0.59 0.57 0.52 0.53 0.54 0.59 0.59 0.61 0.61 0.69 0.81 0.88 0.86 0.99 1.09 1.16 1.29 1.40 1.42 1.39 1.24 1.12 1.08 1.02 0.86 0.71 0.64 0.64 0.57 0.52 0.48 0.41 0.30 0.26 0.27 0.27 0.34 0.46 0.65 0.80 0.97 1.14 1.29
0.50 0.57 0.56 0.57 0.59 0.63 0.65 0.72 0.76 0.84 0.98 1.05 1.10 1.20 1.23 1.20 1.25 1.33 1.39 1.42 1.43 1.27 1.10 1.01 0.90 0.76 0.73 0.75 0.63 0.53 0.56 0.41 0.26 0.20 0.19 0.19 0.24 0.34 0.40 0.45 0.58 0.72 0.86
0.41 0.49 0.56 0.57 0.59 0.60 0.64 0.75 0.93 1.09 1.18 1.23 1.27 1.34 1.38 1.34 1.34 1.41 1.40 1.45 1.53 1.42 1.19 1.00 0.93 0.84 0.82 0.71 0.66 0.58 0.49 0.35 0.26 0.21 0.17 0.16 0.19 0.23 0.23 0.25 0.33 0.43 0.55
0.36 0.40 0.46 0.50 0.53 0.56 0.60 0.68 0.82 1.01 1.11 1.14 1.17 1.23 1.24 1.23 1.22 1.22 1.29 1.40 1.52 1.50 1.27 1.07 1.09 1.10 1.04 0.90 0.79 0.68 0.53 0.41 0.30 0.23 0.17 0.15 0.14 0.16 0.18 0.20 0.23 0.26 0.35
0.35 0.36 0.37 0.39 0.41 0.45 0.52 0.62 0.74 0.85 0.94 0.97 0.97 0.96 0.94 0.92 0.94 0.95 1.02 1.12 1.21 1.38 1.35 1.22 1.28 1.32 1.28 1.17 1.07 0.93 0.70 0.49 0.37 0.30 0.23 0.19 0.16 0.14 0.14 0.17 0.22 0.27 0.31
0.27 0.28 0.30 0.35 0.42 0.53 0.62 0.67 0.71 0.74 0.76 0.80 0.86 0.91 0.84 0.80 0.80 0.82 0.84 0.85 0.90 1.09 1.20 1.23 1.28 1.37 1.37 1.33 1.18 1.02 0.90 0.69 0.48 0.38 0.31 0.25 0.21 0.17 0.15 0.15 0.19 0.27 0.32
0.21 0.25 0.31 0.37 0.45 0.53 0.61 0.66 0.67 0.66 0.62 0.58 0.62 0.67 0.70 0.67 0.66 0.70 0.74 0.74 0.77 0.91 1.06 1.16 1.26 1.42 1.43 1.35 1.26 1.10 1.04 0.90 0.74 0.57 0.46 0.36 0.33 0.28 0.22 0.19 0.18 0.21 0.31
0.21 0.26 0.32 0.38 0.42 0.44 0.45 0.42 0.42 0.41 0.40 0.37 0.36 0.39 0.45 0.51 0.53 0.55 0.58 0.69 0.75 0.81 0.89 0.97 1.05 1.25 1.47 1.48 1.27 1.12 1.15 1.10 0.96 0.76 0.62 0.48 0.40 0.34 0.29 0.24 0.20 0.20 0.25
0.22 0.27 0.32 0.37 0.38 0.33 0.37 0.28 0.20 0.20 0.25 0.29 0.32 0.34 0.35 0.38 0.42 0.43 0.44 0.52 0.65 0.73 0.77 0.83 0.90 1.06 1.27 1.41 1.43 1.35 1.24 1.11 1.03 0.91 0.78 0.70 0.58 0.51 0.45 0.36 0.26 0.22 0.22
0.23 0.26 0.27 0.27 0.29 0.33 0.31 0.24 0.15 0.15 0.19 0.22 0.26 0.29 0.27 0.27 0.31 0.33 0.34 0.35 0.38 0.47 0.58 0.71 0.79 0.84 0.97 1.14 1.28 1.26 1.28 1.27 1.22 1.14 1.04 1.05 0.84 0.68 0.59 0.49 0.32 0.22 0.20
0.29 0.28 0.27 0.26 0.31 0.32 0.27 0.22 0.17 0.15 0.21 0.23 0.25 0.27 0.26 0.23 0.23 0.27 0.32 0.31 0.29 0.29 0.33 0.43 0.56 0.73 0.89 1.05 1.24 1.22 1.18 1.25 1.31 1.30 1.20 1.16 1.04 0.91 0.77 0.65 0.47 0.31 0.23
0.36 0.33 0.31 0.33 0.36 0.37 0.30 0.22 0.18 0.20 0.27 0.28 0.29 0.26 0.25 0.23 0.21 0.19 0.26 0.32 0.34 0.32 0.30 0.33 0.40 0.60 0.83 0.95 1.13 1.19 1.09 1.02 0.97 0.92 0.93 1.02 1.03 0.97 0.91 0.79 0.60 0.41 0.27
0.43 0.37 0.34 0.36 0.40 0.46 0.42 0.28 0.23 0.25 0.33 0.35 0.40 0.34 0.26 0.22 0.22 0.20 0.23 0.28 0.30 0.31 0.32 0.32 0.34 0.42 0.57 0.76 0.89 1.00 1.00 0.90 0.75 0.64 0.50 0.53 0.70 0.81 0.93 0.90 0.78 0.62 0.47